| time (UTC) | temp C | wind direction | speed KPH | gust KPH | rain 1hr cm | rain 24hr cm | rain mn cm | humidity % | barometer mb |
| 20260506221703 | 17 | 200 | 3.2 | 8.0 | 0.13 | 0.46 | 0.46 | 90 | 1003.5 |
| 20260506220704 | 17 | 56 | 0.0 | 3.2 | 0.13 | 0.46 | 0.46 | 90 | 1003.6 |
| 20260506220203 | 17 | 226 | 1.6 | 3.2 | 0.13 | 0.46 | 0.46 | 90 | 1003.6 |
| 20260506215703 | 17 | 202 | 1.6 | 3.2 | 0.13 | 0.46 | 0.46 | 90 | 1003.5 |
| 20260506215203 | 16 | 229 | 3.2 | 4.8 | 0.10 | 0.43 | 0.43 | 90 | 1003.6 |
| 20260506214704 | 16 | 195 | 3.2 | 4.8 | 0.10 | 0.43 | 0.43 | 89 | 1003.5 |
| 20260506214204 | 16 | 245 | 1.6 | 8.0 | 0.08 | 0.41 | 0.41 | 89 | 1003.6 |
| 20260506213703 | 16 | 218 | 1.6 | 4.8 | 0.08 | 0.41 | 0.41 | 89 | 1003.7 |
| 20260506213203 | 16 | 231 | 3.2 | 8.0 | 0.03 | 0.36 | 0.36 | 89 | 1003.6 |
| 20260506212704 | 16 | 233 | 1.6 | 3.2 | 0.00 | 0.33 | 0.33 | 89 | 1003.5 |
| 20260506212204 | 17 | 201 | 1.6 | 4.8 | 0.03 | 0.33 | 0.33 | 89 | 1003.5 |
| 20260506211703 | 17 | 202 | 1.6 | 4.8 | 0.03 | 0.33 | 0.33 | 89 | 1003.7 |
| 20260506211203 | 17 | 226 | 1.6 | 3.2 | 0.03 | 0.33 | 0.33 | 89 | 1003.7 |
| 20260506210704 | 17 | 219 | 1.6 | 4.8 | 0.05 | 0.33 | 0.33 | 89 | 1003.7 |
| 20260506210204 | 17 | 221 | 1.6 | 3.2 | 0.05 | 0.33 | 0.33 | 89 | 1003.6 |
| 20260506205704 | 17 | 193 | 1.6 | 4.8 | 0.05 | 0.33 | 0.33 | 89 | 1003.7 |
| 20260506205203 | 17 | 206 | 3.2 | 8.0 | 0.05 | 0.33 | 0.33 | 89 | 1003.7 |
| 20260506204703 | 17 | 220 | 1.6 | 3.2 | 0.05 | 0.33 | 0.33 | 89 | 1003.8 |
| 20260506204203 | 17 | 235 | 1.6 | 4.8 | 0.05 | 0.33 | 0.33 | 89 | 1003.8 |
| 20260506203704 | 17 | 204 | 0.0 | 8.0 | 0.08 | 0.33 | 0.33 | 89 | 1003.8 |
| 20260506203204 | 17 | 230 | 1.6 | 4.8 | 0.08 | 0.33 | 0.33 | 89 | 1003.9 |
| 20260506202704 | 17 | 250 | 1.6 | 8.0 | 0.08 | 0.33 | 0.33 | 88 | 1003.9 |
| 20260506202204 | 17 | 177 | 1.6 | 4.8 | 0.05 | 0.30 | 0.30 | 88 | 1004.0 |
| 20260506201703 | 17 | 211 | 3.2 | 4.8 | 0.05 | 0.30 | 0.30 | 88 | 1004.0 |
| 20260506201204 | 17 | 253 | 1.6 | 3.2 | 0.05 | 0.30 | 0.30 | 88 | 1004.1 |
| 20260506200203 | 17 | 239 | 1.6 | 4.8 | 0.05 | 0.28 | 0.28 | 88 | 1004.2 |
| 20260506195204 | 17 | 262 | 3.2 | 9.7 | 0.08 | 0.28 | 0.28 | 88 | 1004.3 |
| 20260506194704 | 17 | 221 | 1.6 | 9.7 | 0.08 | 0.28 | 0.28 | 88 | 1004.3 |
| 20260506194204 | 17 | 221 | 3.2 | 4.8 | 0.08 | 0.28 | 0.28 | 88 | 1004.4 |
| 20260506193703 | 17 | 213 | 1.6 | 9.7 | 0.08 | 0.25 | 0.25 | 88 | 1004.6 |
| 20260506192704 | 17 | 234 | 1.6 | 14.5 | 0.08 | 0.25 | 0.25 | 87 | 1004.6 |
| 20260506192204 | 17 | 253 | 3.2 | 9.7 | 0.10 | 0.25 | 0.25 | 87 | 1004.6 |
| 20260506191703 | 17 | 176 | 1.6 | 9.7 | 0.10 | 0.25 | 0.25 | 87 | 1004.6 |
| 20260506190204 | 17 | 199 | 4.8 | 9.7 | 0.08 | 0.23 | 0.23 | 87 | 1004.6 |
| 20260506185704 | 17 | 218 | 3.2 | 8.0 | 0.08 | 0.23 | 0.23 | 87 | 1004.7 |
| 20260506185205 | 17 | 222 | 6.4 | 14.5 | 0.05 | 0.20 | 0.20 | 87 | 1004.8 |
| 20260506184703 | 17 | 218 | 1.6 | 8.0 | 0.08 | 0.20 | 0.20 | 87 | 1004.9 |
| 20260506184204 | 17 | 220 | 1.6 | 8.0 | 0.08 | 0.20 | 0.20 | 86 | 1004.8 |
| 20260506183704 | 17 | 221 | 3.2 | 8.0 | 0.05 | 0.18 | 0.18 | 86 | 1004.8 |
| 20260506182703 | 17 | 254 | 4.8 | 9.7 | 0.08 | 0.18 | 0.18 | 86 | 1004.8 |
| 20260506182203 | 17 | 250 | 4.8 | 9.7 | 0.08 | 0.15 | 0.15 | 86 | 1005.1 |
| 20260506181704 | 17 | 208 | 1.6 | 3.2 | 0.10 | 0.15 | 0.15 | 86 | 1005.1 |
| 20260506180703 | 18 | 196 | 1.6 | 4.8 | 0.15 | 0.15 | 0.15 | 86 | 1005.1 |
| 20260506180203 | 18 | 242 | 1.6 | 8.0 | 0.15 | 0.15 | 0.15 | 86 | 1004.9 |
| 20260506175703 | 18 | 212 | 3.2 | 8.0 | 0.15 | 0.15 | 0.15 | 86 | 1004.6 |
| 20260506175203 | 18 | 256 | 1.6 | 4.8 | 0.15 | 0.15 | 0.15 | 86 | 1004.7 |
| 20260506174704 | 18 | 244 | 0.0 | 0.0 | 0.13 | 0.13 | 0.13 | 86 | 1005.1 |
| 20260506174204 | 18 | 226 | 0.0 | 3.2 | 0.13 | 0.13 | 0.13 | 85 | 1004.9 |
| 20260506173704 | 18 | 210 | 0.0 | 1.6 | 0.13 | 0.13 | 0.13 | 85 | 1004.9 |
| 20260506172703 | 18 | 201 | 1.6 | 8.0 | 0.10 | 0.10 | 0.10 | 84 | 1005.4 |
| 20260506172203 | 18 | 165 | 0.0 | 0.0 | 0.08 | 0.08 | 0.08 | 83 | 1005.4 |
| 20260506171704 | 18 | 165 | 0.0 | 0.0 | 0.05 | 0.05 | 0.05 | 82 | 1005.5 |
| 20260506171204 | 18 | 165 | 0.0 | 3.2 | 0.03 | 0.03 | 0.03 | 82 | 1005.8 |
| 20260506170704 | 18 | 211 | 3.2 | 8.0 | 0.00 | 0.00 | 0.00 | 81 | 1006.0 |
| 20260506165203 | 19 | 175 | 0.0 | 0.0 | 0.00 | 0.00 | 0.00 | 79 | 1005.8 |
| 20260506164703 | 19 | 175 | 0.0 | 0.0 | 0.00 | 0.00 | 0.00 | 78 | 1005.7 |
| 20260506164204 | 19 | 175 | 0.0 | 0.0 | 0.00 | 0.00 | 0.00 | 78 | 1005.7 |
| 20260506162703 | 19 | 96 | 0.0 | 1.6 | 0.00 | 0.00 | 0.00 | 77 | 1005.7 |
| 20260506162203 | 19 | 134 | 0.0 | 9.7 | 0.00 | 0.00 | 0.00 | 77 | 1005.7 |
| 20260506161704 | 19 | 180 | 3.2 | 4.8 | 0.00 | 0.00 | 0.00 | 76 | 1005.8 |
| 20260506161203 | 19 | 250 | 0.0 | 3.2 | 0.00 | 0.00 | 0.00 | 76 | 1005.9 |
| 20260506160704 | 19 | 217 | 1.6 | 8.0 | 0.00 | 0.00 | 0.00 | 76 | 1006.0 |
| 20260506160204 | 19 | 266 | 0.0 | 3.2 | 0.00 | 0.00 | 0.00 | 75 | 1006.1 |
| 20260506155703 | 18 | 208 | 0.0 | 3.2 | 0.00 | 0.00 | 0.00 | 76 | 1006.1 |
| 20260506155203 | 18 | 198 | 1.6 | 3.2 | 0.00 | 0.00 | 0.00 | 76 | 1006.2 |
| 20260506154704 | 18 | 170 | 3.2 | 8.0 | 0.00 | 0.00 | 0.00 | 76 | 1006.3 |
| 20260506154204 | 18 | 229 | 3.2 | 8.0 | 0.00 | 0.00 | 0.00 | 77 | 1006.5 |
| 20260506153203 | 18 | 186 | 1.6 | 9.7 | 0.00 | 0.00 | 0.00 | 77 | 1006.6 |
| 20260506152704 | 18 | 251 | 1.6 | 8.0 | 0.00 | 0.00 | 0.00 | 77 | 1006.6 |
| 20260506152204 | 18 | 210 | 3.2 | 4.8 | 0.00 | 0.00 | 0.00 | 77 | 1006.8 |
| 20260506151704 | 18 | 243 | 3.2 | 4.8 | 0.00 | 0.00 | 0.00 | 77 | 1006.9 |
| 20260506151203 | 18 | 259 | 1.6 | 4.8 | 0.00 | 0.00 | 0.00 | 77 | 1007.0 |
| 20260506145704 | 18 | 225 | 3.2 | 4.8 | 0.00 | 0.00 | 0.00 | 77 | 1007.0 |
| 20260506145204 | 18 | 192 | 1.6 | 4.8 | 0.00 | 0.00 | 0.00 | 77 | 1007.1 |
| 20260506144204 | 18 | 243 | 0.0 | 3.2 | 0.00 | 0.00 | 0.00 | 78 | 1007.0 |
| 20260506143703 | 18 | 195 | 1.6 | 8.0 | 0.00 | 0.00 | 0.00 | 78 | 1007.1 |
| 20260506143203 | 18 | 222 | 3.2 | 4.8 | 0.00 | 0.00 | 0.00 | 78 | 1007.1 |
| 20260506142704 | 18 | 216 | 3.2 | 8.0 | 0.00 | 0.00 | 0.00 | 78 | 1007.1 |
| 20260506142204 | 17 | 228 | 3.2 | 9.7 | 0.00 | 0.00 | 0.00 | 78 | 1007.2 |
| 20260506141704 | 18 | 176 | 3.2 | 8.0 | 0.00 | 0.00 | 0.00 | 78 | 1007.1 |
| 20260506141203 | 17 | 194 | 3.2 | 8.0 | 0.00 | 0.00 | 0.00 | 78 | 1007.0 |
| 20260506140703 | 17 | 96 | 3.2 | 8.0 | 0.00 | 0.00 | 0.00 | 78 | 1007.0 |
| 20260506140203 | 17 | 206 | 3.2 | 8.0 | 0.00 | 0.00 | 0.00 | 78 | 1007.1 |
| 20260506135704 | 17 | 211 | 3.2 | 4.8 | 0.00 | 0.00 | 0.00 | 78 | 1007.2 |
| 20260506135204 | 17 | 253 | 3.2 | 4.8 | 0.00 | 0.00 | 0.00 | 79 | 1006.9 |
| 20260506134703 | 17 | 257 | 1.6 | 9.7 | 0.00 | 0.00 | 0.00 | 79 | 1006.9 |
| 20260506134203 | 17 | 173 | 3.2 | 8.0 | 0.00 | 0.00 | 0.00 | 80 | 1006.8 |
| 20260506133704 | 17 | 257 | 1.6 | 8.0 | 0.00 | 0.00 | 0.00 | 80 | 1006.9 |
| 20260506133204 | 17 | 239 | 0.0 | 4.8 | 0.00 | 0.00 | 0.00 | 80 | 1006.9 |
| 20260506132203 | 17 | 233 | 3.2 | 11.3 | 0.00 | 0.00 | 0.00 | 81 | 1006.8 |
| 20260506131704 | 17 | 181 | 0.0 | 3.2 | 0.00 | 0.00 | 0.00 | 81 | 1006.8 |
| 20260506131204 | 17 | 225 | 1.6 | 4.8 | 0.00 | 0.00 | 0.00 | 81 | 1006.9 |
| 20260506130704 | 17 | 224 | 0.0 | 0.0 | 0.00 | 0.00 | 0.00 | 82 | 1007.1 |
| 20260506125703 | 16 | 224 | 0.0 | 0.0 | 0.00 | 0.00 | 0.00 | 82 | 1007.0 |
| 20260506125204 | 16 | 224 | 0.0 | 3.2 | 0.00 | 0.00 | 0.00 | 82 | 1007.1 |
| 20260506124704 | 16 | 225 | 1.6 | 4.8 | 0.00 | 0.00 | 0.00 | 83 | 1007.1 |
| 20260506124205 | 16 | 141 | 0.0 | 1.6 | 0.00 | 0.00 | 0.00 | 83 | 1007.3 |
| 20260506123203 | 16 | 61 | 0.0 | 0.0 | 0.00 | 0.00 | 0.00 | 83 | 1007.4 |
| 20260506122704 | 16 | 61 | 0.0 | 0.0 | 0.00 | 0.00 | 0.00 | 84 | 1007.5 |
| 20260506121703 | 15 | 61 | 0.0 | 0.0 | 0.00 | 0.00 | 0.00 | 84 | 1007.5 |
| 20260506121203 | 15 | 61 | 0.0 | 0.0 | 0.00 | 0.00 | 0.00 | 85 | 1007.5 |
| 20260506120704 | 15 | 61 | 0.0 | 0.0 | 0.00 | 0.00 | 0.00 | 85 | 1007.5 |
| 20260506115704 | 15 | 61 | 0.0 | 0.0 | 0.00 | 0.00 | 0.00 | 85 | 1007.5 |
| 20260506114703 | 15 | 61 | 0.0 | 0.0 | 0.00 | 0.00 | 0.00 | 86 | 1007.5 |
| 20260506114204 | 15 | 61 | 0.0 | 0.0 | 0.00 | 0.00 | 0.00 | 86 | 1007.5 |
| 20260506113704 | 15 | 61 | 0.0 | 0.0 | 0.00 | 0.00 | 0.00 | 86 | 1007.5 |
| 20260506113203 | 15 | 61 | 0.0 | 0.0 | 0.00 | 0.00 | 0.00 | 86 | 1007.4 |
| 20260506112703 | 15 | 61 | 0.0 | 0.0 | 0.00 | 0.00 | 0.00 | 87 | 1007.5 |
| 20260506111704 | 14 | 61 | 0.0 | 0.0 | 0.00 | 0.00 | 0.00 | 87 | 1007.4 |
| 20260506111204 | 14 | 61 | 0.0 | 3.2 | 0.00 | 0.00 | 0.00 | 87 | 1007.4 |
| 20260506110703 | 14 | 44 | 0.0 | 0.0 | 0.00 | 0.00 | 0.00 | 87 | 1007.5 |
| 20260506110205 | 13 | 44 | 0.0 | 0.0 | 0.00 | 0.00 | 0.00 | 87 | 1007.4 |
| 20260506105704 | 13 | 44 | 0.0 | 0.0 | 0.00 | 0.00 | 0.00 | 87 | 1007.7 |
| 20260506104703 | 13 | 44 | 0.0 | 0.0 | 0.00 | 0.00 | 0.00 | 87 | 1007.7 |
| 20260506104203 | 13 | 44 | 0.0 | 0.0 | 0.00 | 0.00 | 0.00 | 87 | 1007.8 |
| 20260506103703 | 13 | 44 | 0.0 | 1.6 | 0.00 | 0.00 | 0.00 | 87 | 1007.6 |
| 20260506102704 | 12 | 44 | 0.0 | 0.0 | 0.00 | 0.00 | 0.00 | 87 | 1007.7 |
| 20260506102204 | 12 | 44 | 0.0 | 0.0 | 0.00 | 0.00 | 0.00 | 86 | 1007.6 |
| 20260506101703 | 12 | 44 | 0.0 | 0.0 | 0.00 | 0.00 | 0.00 | 86 | 1007.5 |
| 20260506101203 | 12 | 44 | 0.0 | 0.0 | 0.00 | 0.00 | 0.00 | 86 | 1007.3 |
| 20260506100704 | 12 | 44 | 0.0 | 0.0 | 0.00 | 0.00 | 0.00 | 86 | 1007.3 |
| 20260506095703 | 12 | 44 | 0.0 | 0.0 | 0.00 | 0.00 | 0.00 | 85 | 1007.4 |
| 20260506095204 | 12 | 44 | 0.0 | 0.0 | 0.00 | 0.00 | 0.00 | 85 | 1007.3 |
| 20260506094704 | 12 | 44 | 0.0 | 0.0 | 0.00 | 0.00 | 0.00 | 85 | 1007.3 |
| 20260506094204 | 12 | 44 | 0.0 | 0.0 | 0.00 | 0.00 | 0.00 | 85 | 1007.2 |
| 20260506093203 | 12 | 44 | 0.0 | 0.0 | 0.00 | 0.00 | 0.00 | 84 | 1007.3 |
| 20260506092704 | 12 | 44 | 0.0 | 0.0 | 0.00 | 0.00 | 0.00 | 84 | 1007.4 |
| 20260506092204 | 12 | 44 | 0.0 | 0.0 | 0.00 | 0.00 | 0.00 | 84 | 1007.4 |
| 20260506091704 | 12 | 44 | 0.0 | 0.0 | 0.00 | 0.00 | 0.00 | 84 | 1007.2 |
| 20260506091203 | 12 | 44 | 0.0 | 0.0 | 0.00 | 0.00 | 0.00 | 84 | 1007.2 |
| 20260506090205 | 12 | 44 | 0.0 | 0.0 | 0.00 | 0.00 | 0.00 | 84 | 1007.3 |
| 20260506085704 | 12 | 44 | 0.0 | 0.0 | 0.00 | 0.00 | 0.00 | 84 | 1007.4 |
| 20260506085204 | 12 | 44 | 0.0 | 1.6 | 0.00 | 0.00 | 0.00 | 84 | 1007.3 |
| 20260506084703 | 13 | 3 | 0.0 | 0.0 | 0.00 | 0.00 | 0.00 | 83 | 1007.3 |
| 20260506084203 | 13 | 3 | 0.0 | 0.0 | 0.00 | 0.00 | 0.00 | 83 | 1007.3 |
| 20260506083203 | 13 | 3 | 0.0 | 3.2 | 0.00 | 0.00 | 0.00 | 83 | 1007.4 |
| 20260506082705 | 13 | 23 | 0.0 | 0.0 | 0.00 | 0.00 | 0.00 | 83 | 1007.4 |
| 20260506082203 | 13 | 42 | 0.0 | 1.6 | 0.00 | 0.00 | 0.00 | 83 | 1007.3 |
| 20260506081703 | 13 | 3 | 0.0 | 3.2 | 0.00 | 0.00 | 0.00 | 83 | 1007.4 |
| 20260506081203 | 13 | 359 | 0.0 | 0.0 | 0.00 | 0.00 | 0.00 | 82 | 1007.3 |
| 20260506080703 | 13 | 359 | 0.0 | 0.0 | 0.00 | 0.00 | 0.00 | 82 | 1007.2 |
| 20260506080204 | 13 | 359 | 0.0 | 0.0 | 0.00 | 0.00 | 0.00 | 82 | 1007.4 |
| 20260506073204 | 14 | 45 | 0.0 | 0.0 | 0.00 | 0.00 | 0.00 | 80 | 1007.2 |
| 20260506072703 | 14 | 45 | 0.0 | 0.0 | 0.00 | 0.00 | 0.00 | 80 | 1007.2 |
| 20260506072204 | 14 | 45 | 0.0 | 0.0 | 0.00 | 0.00 | 0.00 | 80 | 1007.3 |
| 20260506071703 | 14 | 45 | 0.0 | 0.0 | 0.00 | 0.00 | 0.00 | 79 | 1007.3 |
| 20260506071204 | 14 | 45 | 0.0 | 0.0 | 0.00 | 0.00 | 0.00 | 79 | 1007.3 |
| 20260506070704 | 15 | 45 | 0.0 | 1.6 | 0.00 | 0.00 | 0.00 | 78 | 1007.2 |
| 20260506062204 | 16 | 3 | 1.6 | 3.2 | 0.00 | 0.00 | 0.00 | 75 | 1007.0 |
| 20260506061704 | 16 | 0 | 1.6 | 1.6 | 0.00 | 0.00 | 0.00 | 75 | 1006.9 |
| 20260506061203 | 16 | 10 | 0.0 | 0.0 | 0.00 | 0.00 | 0.00 | 74 | 1006.9 |
| 20260506060204 | 16 | 29 | 1.6 | 3.2 | 0.00 | 0.00 | 0.00 | 74 | 1007.0 |
| 20260506051204 | 17 | 253 | 0.0 | 4.8 | 0.00 | 0.00 | 0.00 | 69 | 1007.1 |
| 20260506050203 | 17 | 155 | 1.6 | 4.8 | 0.00 | 0.00 | 0.00 | 69 | 1007.1 |
| 20260506044703 | 17 | 220 | 1.6 | 3.2 | 0.00 | 0.00 | 0.00 | 69 | 1007.2 |
| 20260506044204 | 17 | 219 | 0.0 | 1.6 | 0.00 | 0.00 | 0.00 | 69 | 1007.1 |
| 20260506043203 | 17 | 250 | 0.0 | 1.6 | 0.00 | 0.00 | 0.00 | 68 | 1007.1 |
| 20260506042703 | 17 | 270 | 0.0 | 3.2 | 0.00 | 0.00 | 0.00 | 68 | 1007.1 |
| 20260506042203 | 17 | 213 | 3.2 | 3.2 | 0.00 | 0.00 | 0.00 | 68 | 1007.1 |
| 20260506041704 | 17 | 230 | 0.0 | 0.0 | 0.00 | 0.00 | 0.00 | 68 | 1007.1 |
| 20260506041203 | 17 | 230 | 0.0 | 1.6 | 0.00 | 0.00 | 0.00 | 68 | 1007.2 |
| 20260506040703 | 17 | 217 | 0.0 | 1.6 | 0.00 | 0.00 | 0.00 | 67 | 1007.2 |
| 20260506040204 | 18 | 216 | 0.0 | 0.0 | 0.00 | 0.00 | 0.00 | 67 | 1007.2 |
| 20260506035204 | 18 | 216 | 0.0 | 3.2 | 0.00 | 0.00 | 0.00 | 67 | 1007.1 |
| 20260506034703 | 18 | 243 | 1.6 | 1.6 | 0.00 | 0.00 | 0.00 | 66 | 1007.2 |
| 20260506033704 | 18 | 171 | 0.0 | 0.0 | 0.00 | 0.00 | 0.00 | 66 | 1007.2 |
| 20260506033204 | 18 | 171 | 0.0 | 0.0 | 0.00 | 0.00 | 0.00 | 66 | 1007.3 |
| 20260506032703 | 18 | 171 | 0.0 | 0.0 | 0.00 | 0.00 | 0.00 | 66 | 1007.2 |
| 20260506031203 | 18 | 237 | 0.0 | 8.0 | 0.00 | 0.00 | 0.00 | 65 | 1007.1 |
| 20260506030703 | 18 | 268 | 0.0 | 0.0 | 0.00 | 0.00 | 0.00 | 65 | 1007.2 |
| 20260506030204 | 18 | 268 | 0.0 | 0.0 | 0.00 | 0.00 | 0.00 | 65 | 1007.1 |
| 20260506025704 | 18 | 268 | 0.0 | 0.0 | 0.00 | 0.00 | 0.00 | 65 | 1007.2 |
| 20260506025203 | 18 | 268 | 0.0 | 1.6 | 0.00 | 0.00 | 0.00 | 64 | 1007.2 |
| 20260506024703 | 18 | 356 | 0.0 | 0.0 | 0.00 | 0.00 | 0.00 | 64 | 1007.0 |
| 20260506024204 | 18 | 328 | 0.0 | 1.6 | 0.00 | 0.00 | 0.00 | 64 | 1007.1 |
| 20260506023704 | 18 | 311 | 0.0 | 1.6 | 0.00 | 0.00 | 0.00 | 64 | 1007.1 |
| 20260506023204 | 19 | 297 | 1.6 | 3.2 | 0.00 | 0.00 | 0.00 | 64 | 1007.1 |
| 20260506022203 | 19 | 143 | 0.0 | 1.6 | 0.00 | 0.00 | 0.00 | 64 | 1006.9 |
| 20260506021703 | 19 | 151 | 1.6 | 4.8 | 0.00 | 0.00 | 0.00 | 63 | 1006.8 |
| 20260506021204 | 19 | 103 | 0.0 | 0.0 | 0.00 | 0.00 | 0.00 | 63 | 1006.9 |
| 20260506020704 | 20 | 103 | 0.0 | 3.2 | 0.00 | 0.00 | 0.00 | 63 | 1006.9 |
| 20260506020203 | 20 | 270 | 0.0 | 0.0 | 0.00 | 0.00 | 0.00 | 62 | 1006.8 |
| 20260506015704 | 20 | 270 | 0.0 | 1.6 | 0.00 | 0.00 | 0.00 | 62 | 1006.8 |
| 20260506015204 | 20 | 264 | 0.0 | 1.6 | 0.00 | 0.00 | 0.00 | 62 | 1006.8 |
| 20260506014704 | 20 | 267 | 0.0 | 0.0 | 0.00 | 0.00 | 0.00 | 61 | 1006.7 |
| 20260506014203 | 20 | 267 | 0.0 | 0.0 | 0.00 | 0.00 | 0.00 | 61 | 1006.7 |
| 20260506013703 | 20 | 267 | 0.0 | 0.0 | 0.00 | 0.00 | 0.00 | 61 | 1006.7 |
| 20260506013204 | 20 | 267 | 0.0 | 0.0 | 0.00 | 0.00 | 0.00 | 60 | 1006.6 |
| 20260506012704 | 20 | 267 | 0.0 | 0.0 | 0.00 | 0.00 | 0.00 | 60 | 1006.6 |
| 20260506011704 | 20 | 267 | 0.0 | 0.0 | 0.00 | 0.00 | 0.00 | 59 | 1006.4 |
| 20260506011204 | 21 | 267 | 0.0 | 0.0 | 0.00 | 0.00 | 0.00 | 58 | 1006.3 |
| 20260506010704 | 21 | 267 | 0.0 | 1.6 | 0.00 | 0.00 | 0.00 | 58 | 1006.4 |
| 20260506010203 | 21 | 288 | 1.6 | 4.8 | 0.00 | 0.00 | 0.00 | 57 | 1006.2 |
| 20260506005703 | 21 | 189 | 0.0 | 3.2 | 0.00 | 0.00 | 0.00 | 57 | 1006.2 |
| 20260506005204 | 21 | 202 | 1.6 | 3.2 | 0.00 | 0.00 | 0.00 | 57 | 1006.1 |
| 20260506004704 | 21 | 287 | 0.0 | 1.6 | 0.00 | 0.00 | 0.00 | 56 | 1006.1 |
| 20260506003704 | 21 | 218 | 1.6 | 3.2 | 0.00 | 0.00 | 0.00 | 56 | 1006.0 |
| 20260506002703 | 21 | 253 | 3.2 | 9.7 | 0.00 | 0.00 | 0.00 | 55 | 1005.6 |
| 20260506002203 | 21 | 198 | 1.6 | 8.0 | 0.00 | 0.00 | 0.00 | 55 | 1005.7 |
| 20260506001704 | 21 | 241 | 1.6 | 9.7 | 0.00 | 0.00 | 0.00 | 54 | 1005.5 |
| 20260506001204 | 21 | 226 | 3.2 | 8.0 | 0.00 | 0.00 | 0.00 | 54 | 1005.4 |
| 20260506000703 | 21 | 288 | 1.6 | 8.0 | 0.00 | 0.00 | 0.00 | 54 | 1005.3 |
| 20260506000204 | 21 | 208 | 4.8 | 9.7 | 0.00 | 0.00 | 0.00 | 53 | 1005.1 |
| 20260505234704 | 22 | 269 | 6.4 | 12.9 | 0.00 | 0.00 | 0.00 | 52 | 1004.8 |
| 20260505234203 | 22 | 219 | 4.8 | 9.7 | 0.00 | 0.00 | 0.00 | 52 | 1004.8 |
| 20260505233703 | 22 | 227 | 4.8 | 16.1 | 0.00 | 0.00 | 0.00 | 52 | 1004.7 |
| 20260505233204 | 22 | 176 | 4.8 | 11.3 | 0.00 | 0.00 | 0.00 | 51 | 1004.6 |
| 20260505232704 | 22 | 246 | 3.2 | 8.0 | 0.00 | 0.00 | 0.00 | 50 | 1004.4 |
| 20260505231204 | 23 | 223 | 4.8 | 12.9 | 0.00 | 0.00 | 0.00 | 49 | 1004.2 |
| 20260505230703 | 23 | 239 | 6.4 | 14.5 | 0.00 | 0.00 | 0.00 | 49 | 1004.1 |
| 20260505230203 | 23 | 260 | 6.4 | 16.1 | 0.00 | 0.00 | 0.00 | 48 | 1004.0 |
| 20260505225704 | 23 | 248 | 6.4 | 9.7 | 0.00 | 0.00 | 0.00 | 48 | 1004.0 |
| 20260505225204 | 23 | 231 | 4.8 | 12.9 | 0.00 | 0.00 | 0.00 | 48 | 1004.0 |
| 20260505224704 | 23 | 267 | 3.2 | 9.7 | 0.00 | 0.00 | 0.00 | 47 | 1004.0 |
| 20260505223704 | 24 | 203 | 8.0 | 11.3 | 0.00 | 0.00 | 0.00 | 46 | 1003.8 |
| 20260505222703 | 25 | 236 | 4.8 | 12.9 | 0.00 | 0.00 | 0.00 | 45 | 1003.6 |